Location: Ottawa
(45.4170°N, 75.7000°W)
Time: 15:18:33
(UTC-04:00)

Daily predictions for brighter satellites

Satellite Brightness Start Highest point End
(mag) Time Altitude Azimuth Time Altitude Azimuth Time Altitude Azimuth
Cosmos 2228 4.0 19:26:02 10° SE 19:29:40 26° E 19:33:18 10° NNE
Cosmos 1953 Rocket 3.8 19:25:54 10° N 19:30:07 48° ENE 19:34:18 10° SSE
Cosmos 2058 Rocket 3.9 19:26:57 10° SSE 19:30:41 29° E 19:34:28 10° NNE
Cosmos 1606 Rocket 3.7 19:27:28 10° SSE 19:31:39 49° E 19:35:50 10° NNE
Envisat 4.3 19:30:08 10° ESE 19:33:51 21° ENE 19:37:36 10° NNE
Cosmos 332 Rocket 3.8 19:30:13 10° SSW 19:35:06 75° ESE 19:39:58 10° NNE
Geosat 4.2 19:30:08 10° SSE 19:35:09 80° WSW 19:40:13 10° NNW
ATLAS CENTAUR R/B 4.1 19:17:06 10° NW 19:35:55 76° NNE 19:41:45 10° ESE
FengYun 1-2 T 4.3 19:33:31 10° SSE 19:39:01 59° ENE 19:44:30 10° N
Cosmos 389 Rocket 2.5 19:36:53 10° S 19:40:20 59° E 19:43:47 10° NNE
Cosmos 371 Rocket 3.3 19:36:08 10° SSW 19:40:58 72° ESE 19:45:52 10° NNE
Meteor 1-15 Rocket 4.4 19:35:35 10° S 19:41:29 90° ESE 19:47:20 10° N
EP 1 4.4 19:40:46 10° SW 19:43:22 72° NW 19:46:00 10° NE
Cosmos 1707 2.8 19:39:58 10° N 19:43:52 56° E 19:47:43 10° SSE
Cosmos 2369 Rocket 3.2 19:40:16 10° NW 19:45:42 49° WSW 19:51:05 10° S
FENGYUN 3A 3.8 19:41:38 10° S 19:46:59 79° WSW 19:52:23 10° NNW
Cosmos 1656 Rocket 4.0 19:42:17 10° NNW 19:47:48 50° ENE 19:53:13 10° SE
ATLAS 2AS CENTAUR R/B 4.4 19:41:29 10° NW 19:47:57 25° NNE 19:54:12 10° ENE
Cosmos 1825 Rocket 3.8 19:45:29 10° NNW 19:49:53 75° W 19:54:18 10° S
TIMED 4.5 19:45:37 10° NNW 19:49:59 69° ENE 19:54:20 10° SSE
Cosmos 2298 Rocket 4.0 19:45:05 10° NNW 19:50:28 83° ENE 19:55:48 10° SSE
USA 229 DEB 4.1 19:46:56 10° NW 19:54:05 75° SW 20:01:22 10° SSE
USA 229 4.1 19:47:02 10° NW 19:54:11 75° SW 20:01:28 10° SSE
Cosmos 1937 Rocket 3.5 19:48:57 10° NNW 19:54:18 87° ENE 19:59:35 10° SSE
Cosmos 468 Rocket 4.0 19:49:24 10° SSW 19:54:36 86° ESE 19:59:55 10° NNE
Cosmos 841 Rocket 3.9 19:51:09 10° S 19:55:53 39° ESE 20:00:39 10° NE
Cosmos 2181 Rocket 4.0 19:50:37 10° N 19:56:52 89° ENE 20:03:01 10° S
Cosmos 1340 Rocket 3.1 19:53:15 10° NNW 19:57:18 76° W 20:01:23 10° S
NOSS 3-1 (A) 4.2 19:51:10 10° NW 19:58:30 58° NE 20:06:04 12° ESE
Cosmos 1271 Rocket 3.5 20:00:49 10° SSW 20:04:31 55° WNW 20:08:17 10° N
NOSS 3-1 (C) 4.1 20:01:27 10° NW 20:08:58 79° NE 20:17:12 11° SE
Cosmos 1943 4.2 20:05:05 10° SW 20:10:35 50° WNW 20:16:09 10° NNE
Cosmos 1356 Rocket 3.5 20:07:10 10° N 20:11:26 61° ENE 20:15:41 10° SSE
HJ-1C 3.5 20:09:17 10° S 20:12:38 78° WSW 20:16:01 10° NNW
OPS 8737 4.3 20:10:22 10° SSW 20:14:02 78° SE 20:17:24 10° NE
Cosmos 1378 3.5 20:11:00 10° NNW 20:14:46 68° W 20:18:31 10° S
SL-08 ROCKET BODY 4.3 20:09:48 10° S 20:15:40 84° E 20:21:40 10° N
Cosmos 1805 4.3 20:15:50 23° E 20:16:15 24° E 20:19:25 10° NE
Thor Agena Rocket 4.2 20:12:19 10° N 20:17:32 62° WNW 20:22:39 10° SSW
Cosmos 1763 Rocket 3.4 20:12:46 10° SSW 20:17:51 80° ESE 20:23:03 10° NNE
Cosmos 2074 Rocket 3.9 20:12:22 10° S 20:18:28 64° E 20:24:36 10° NNE
CZ-2D R/B 3.1 20:17:16 10° SSE 20:21:03 75° ENE 20:24:53 10° N
YAOGAN 6 4.0 20:21:29 21° ENE 20:21:29 21° ENE 20:24:10 10° NNE
Cosmos 540 Rocket 4.0 20:19:49 10° SSE 20:24:25 35° ESE 20:29:03 10° NE
Cosmos 1544 3.3 20:23:42 11° SSE 20:26:54 43° E 20:30:21 10° NNE
Meteor 1-24 Rocket 3.8 20:22:02 10° N 20:28:05 80° E 20:33:56 10° SSE
Resurs 1-3 3.5 20:24:23 13° SSE 20:28:16 68° ENE 20:32:38 10° N
SJ-6B 3.8 20:25:13 10° S 20:29:08 48° W 20:32:59 10° NNW
Cosmos 1953 4.3 20:32:26 15° NE 20:32:26 15° NE 20:33:32 10° NE
Cosmos 304 Rocket 3.6 20:27:05 10° SSW 20:31:51 73° ESE 20:36:40 10° NNE
Spot 2 Rocket 3.4 20:35:49 13° SSE 20:40:18 82° ENE 20:45:23 10° NNW
GEOS 3 Rocket 4.0 20:36:10 10° NE 20:41:15 40° ESE 20:46:17 10° S
Nadezhda 3 Rocket 4.1 20:37:05 10° N 20:43:20 58° ENE 20:47:19 23° SSE
Resurs 01 Rocket 1.7 20:40:30 12° S 20:44:36 77° WSW 20:49:02 10° NNW
Cosmos 1943 Rocket 4.3 20:46:03 10° NW 20:50:29 25° WSW 20:54:57 10° SSW
USA 186 2.2 20:51:12 46° NW 20:51:12 46° NW 20:53:11 10° NNW
GP-B 3.0 20:46:54 10° N 20:51:21 76° E 20:54:01 24° S
Cosmos 2184 Rocket 4.2 20:46:29 10° SSW 20:52:47 76° W 20:59:11 10° N
FALCON 9 R/B 3.3 20:49:35 10° SW 20:52:58 28° SSE 20:53:50 27° SSE
SJ-11-01 4.2 20:53:42 41° SE 20:55:14 67° ENE 20:59:56 10° N
Cosmos 1980 Rocket 4.1 20:55:25 10° N 20:58:28 15° NE 20:59:20 14° NE
MOS 1-B Rocket 4.0 20:52:19 10° SSE 20:58:39 79° WSW 21:04:22 10° NNW
Cosmos 1697 Rocket 4.1 20:54:36 10° N 20:58:53 21° NE 20:59:34 21° NE
Cosmos 1125 Rocket 3.4 20:55:34 10° NNW 21:00:53 89° WSW 21:03:08 36° SSE
Cosmos 1356 3.4 20:57:25 10° N 21:00:37 72° NNE 21:00:37 72° NNE
Cosmos 1610 Rocket 4.5 20:55:00 10° S 21:01:21 90° SSW 21:07:48 10° N
Cosmos 2084 3.7 20:57:45 10° SW 21:01:45 60° NW 21:04:21 19° NNE
Cosmos 1812 Rocket 3.5 21:04:33 19° S 21:07:43 87° W 21:12:14 10° N
H-2A R/B 3.5 21:11:13 21° NE 21:11:13 21° NE 21:14:01 10° NNE
ERS-1 Rocket 3.6 21:11:31 39° ENE 21:11:31 39° ENE 21:15:52 10° N
Cosmos 1758 4.1 21:13:08 42° NNE 21:13:08 42° NNE 21:15:53 10° NNE
Envisat 3.5 21:08:43 18° S 21:12:28 57° W 21:17:29 10° NNW
BREEZE-M DEB (TANK) 4.2 21:08:09 10° WNW 21:12:41 72° NNE 21:20:11 29° E
Cosmos 1656 4.5 21:08:13 10° NNW 21:13:24 34° NE 21:13:38 34° ENE
Cosmos 1295 Rocket 4.4 21:15:33 48° SE 21:16:53 59° E 21:22:51 10° NNE
Meteor 1-21 Rocket 4.1 21:12:18 10° N 21:18:07 77° ENE 21:19:25 54° SSE
Cosmos 1939 Rocket 3.1 21:18:19 59° SW 21:18:36 61° W 21:22:30 10° NNW
Cosmos 372 Rocket 4.1 21:14:20 10° NNW 21:19:34 71° WSW 21:21:07 45° S
COSMOS 2406 3.3 21:14:51 10° SSW 21:20:33 76° WNW 21:26:20 10° NNE
Okean 3 Rocket 3.8 21:17:22 10° N 21:21:15 61° NNE 21:21:15 61° NNE
SL-8 Rocket 4.2 21:22:36 46° ENE 21:22:36 46° ENE 21:27:54 10° NNE
NOAA 11 4.0 21:28:20 70° E 21:28:37 72° ENE 21:34:04 10° N
Gblst 52 Del rocket 4.5 21:25:19 10° WNW 21:32:49 90° SSW 21:34:05 62° ESE
Cosmos 2369 3.8 21:31:58 10° NNW 21:37:20 61° NE 21:37:20 61° NE
ARGOS 3.5 21:38:32 51° NE 21:38:32 51° NE 21:43:06 10° N
Cosmos 1809 Rocket 4.3 21:38:26 71° ESE 21:38:32 71° E 21:44:38 10° NNE
ATLAS 2AS CENTAUR R/B 3.2 21:32:55 10° NW 21:40:52 56° NE 21:42:18 49° E
MetOp-A 4.2 21:46:17 67° NNE 21:46:17 67° NNE 21:51:03 10° N
Cosmos 1674 4.4 21:44:38 10° NNW 21:47:00 31° NW 21:47:00 31° NW
Helios 1A 4.4 21:57:33 37° NW 21:57:33 37° NW 22:00:28 10° NNW
Meteor 2-15 4.4 21:53:36 10° NNW 21:59:41 78° W 21:59:45 78° WSW
Cosmos 1953 4.5 22:08:07 25° NW 22:08:07 25° NW 22:10:22 10° N
USA 267 4.0 22:11:15 38° NE 22:12:19 40° NNE 22:18:19 10° NW
Cosmos 2278 4.1 22:07:49 10° NNW 22:12:26 59° NW 22:12:26 59° NW
Cosmos 2322 Rocket 4.1 22:26:09 10° N 22:28:46 20° NNE 22:28:46 20° NNE
Terra 4.1 22:37:06 19° N 22:37:06 19° N 22:38:26 10° N
Cosmos 1697 Rocket 3.9 22:37:49 10° NNW 22:41:18 39° NW 22:41:18 39° NW
Cosmos 1980 Rocket 3.6 22:37:57 10° NNW 22:41:06 34° N 22:41:06 34° N
H-2A R/B 3.9 22:51:51 26° NW 22:51:51 26° NW 22:54:11 10° NNW
SL-16 R/B 4.1 23:00:56 10° NNW 23:03:20 23° N 23:03:20 23° N
ATLAS 2AS CENTAUR R/B 4.0 23:24:23 10° NW 23:29:43 36° W 23:29:43 36° W
